[[{"header":{"parameterUnit":"m.s-1","parameterCategory":1,"la1":30.2991,"la2":30.254,"lo1":-89.0895,"lo2":-89.0444,"dy":0.0017,"dx":0.0017,"nx":28,"ny":28,"refTime":"2024-08-29T21:00:00:Z","depth":0,"parameterNumber":2,"parameterNumberName":"U-component_of_WINDS"},"data":[0,0,0,0,0,0,0,0,0,0,0,0,0,0,0,0,0,0,0,0,0,0,0,0,0,0,0,0,0,0,0,0,0,0,0,0,0,0,0,0,0,0,0,0,0,0,0,0,0,0,0,0,0,0,0,0,0,0,-7.3089,-7.3091,0,-7.3246,-7.3248,-7.3249,-7.3238,-7.3236,-7.3234,-7.3231,-7.3382,-7.3388,-7.3394,0,0,0,0,0,0,0,0,0,0,0,0,0,-7.2771,-7.2777,-7.3089,-7.3091,-7.3093,-7.3246,-7.3248,-7.325,-7.3239,-7.3236,-7.3233,-7.323,-7.338,-7.3387,-7.3394,0,0,0,0,0,0,0,0,0,0,0,0,0,-7.2916,-7.2779,-7.3088,-7.3106,-7.3109,-7.3245,-7.3248,-7.325,-7.3239,-7.3236,-7.3232,-7.3229,-7.3377,-7.3386,-7.3395,-7.3521,0,0,-7.3424,-7.3428,0,0,0,0,0,0,0,0,-7.2908,-7.2928,-7.3101,-7.3105,-7.3109,-7.3219,-7.3191,-7.3341,-7.324,-7.3189,-7.3231,-7.3227,-7.333,-7.3343,-7.3379,-7.3528,-7.3535,-7.3424,-7.343,-7.3434,-7.3437,0,0,0,0,0,0,0,-7.2898,-7.2921,-7.3151,-7.3104,-7.3108,-7.3103,-7.312,-7.3219,-7.3277,-7.3193,-7.3193,-7.3212,-7.3331,-7.337,-7.3383,-7.3537,-7.3424,-7.3432,-7.3438,-7.3442,-7.3796,-7.38,0,0,0,0,0,0,-7.2885,-7.2913,-7.3146,-7.3155,-7.2998,-7.3112,-7.313,-7.3187,-7.3276,-7.3286,-7.3215,-7.3211,-7.3356,-7.3372,-7.3388,-7.3539,-7.3434,-7.3443,-7.3448,-7.3792,-7.3797,-7.3801,0,0,0,0,0,0,-7.2879,-7.2906,-7.3139,-7.3034,-7.3064,-7.3121,-7.3184,-7.3192,-7.3231,-7.3292,-7.3301,-7.3245,-7.3354,-7.3375,-7.3489,-7.3544,-7.3447,-7.3455,-7.3788,-7.3794,-7.3799,-7.3844,0,0,0,0,0,0,-7.287,-7.2904,-7.2954,-7.3036,-7.3069,-7.324,-7.3188,-7.3197,-7.3248,-7.3245,-7.3323,-7.3332,-7.3353,-7.3475,-7.3498,-7.3555,-7.3462,-7.3783,-7.379,-7.3797,-7.3838,-7.3851,-7.3862,0,0,0,0,0,-7.2858,-7.2958,-7.2957,-7.2985,-7.3134,-7.3243,-7.3262,-7.3287,-7.3253,-7.3302,-7.3342,-7.333,-7.3536,-7.3487,-7.3512,-7.3573,-7.3779,-7.3788,-7.3797,-7.3832,-7.3848,-7.3862,0,0,0,0,0,0,-7.2878,-7.2969,-7.2968,-7.3098,-7.3164,-7.3241,-7.3304,-7.3303,-7.3376,-7.3369,-7.3394,-7.3412,-7.3525,-7.3562,-7.3505,-7.37,-7.3653,-7.3667,-7.3671,-7.3687,-7.3699,-7.3685,-7.347,0,0,0,0,0,-7.2898,-7.2983,-7.3057,-7.3164,-7.3198,-7.3246,-7.3294,-7.3308,-7.3375,-7.3401,-7.3449,-7.3512,-7.3591,-7.3641,-7.3717,-7.3845,-7.386,-7.39,-7.3912,-7.3921,-7.3932,-7.4,-7.4017,-7.383,-7.383,-7.383,0,0,-7.2939,-7.2999,-7.305,-7.317,-7.3222,-7.3305,-7.3268,-7.3358,-7.342,-7.3414,-7.3524,-7.3562,-7.3634,-7.3755,-7.381,-7.3788,-7.3988,-7.3933,-7.394,-7.3945,-7.4011,-7.4028,-7.4044,-7.3836,-7.3835,-7.3834,0,0,-7.3055,-7.3111,-7.3206,-7.3261,-7.3342,-7.3373,-7.3397,-7.3476,-7.3501,-7.3614,-7.3611,-7.3684,-7.3819,-7.387,-7.3914,-7.4054,-7.4044,-7.4078,-7.4138,-7.4205,-7.4219,-7.4232,-7.4279,-7.4296,-7.4089,-7.4089,-7.4089,0,-7.3094,-7.3223,-7.3254,-7.3346,-7.3397,-7.3402,-7.3496,-7.3546,-7.3646,-7.368,-7.3656,-7.3827,-7.3876,-7.4008,-7.4042,-7.4079,-7.4103,-7.4066,-7.4216,-7.4229,-7.4241,-7.4286,-7.4304,-7.4092,-7.4092,-7.4092,-7.4091,0,-7.3265,-7.3355,-7.3422,-7.3522,-7.3582,-7.3675,-7.3717,-7.3774,-7.3784,-7.3818,-7.3931,-7.3991,-7.4079,-7.4112,-7.4122,-7.4246,-7.4229,-7.4211,-7.4163,-7.4262,-7.4304,-7.4322,-7.4097,-7.4096,-7.4095,-7.4094,0,0,-7.3392,-7.3513,-7.3536,-7.3582,-7.3673,-7.3741,-7.3834,-7.3924,-7.397,-7.4041,-7.4116,-7.4233,-7.4217,-7.4267,-7.4282,-7.4341,-7.4445,-7.4315,-7.4317,-7.4333,-7.4582,-7.4592,-7.4611,-7.4442,-7.4445,-7.4448,-7.4574,0,-7.3515,-7.3682,-7.3714,-7.3858,-7.3939,-7.3947,-7.4027,-7.409,-7.4126,-7.4198,-7.4236,-7.4317,-7.4291,-7.4321,-7.438,-7.442,-7.4494,-7.4412,-7.4508,-7.4511,-7.4485,-7.4634,-7.4645,-7.4761,-7.4591,-7.4594,-7.4596,0,-7.3678,-7.3756,-7.3909,-7.3991,-7.4026,-7.4098,-7.4183,-7.4254,-7.4325,-7.4347,-7.4405,-7.4415,-7.4508,-7.4461,-7.4589,-7.4532,-7.4574,-7.46,-7.4606,-7.4611,-7.4556,-7.4639,-7.4799,-7.4814,-7.4623,-7.4621,-7.4619,0,-7.3751,-7.3895,-7.4004,-7.4044,-7.4142,-7.4192,-7.4235,-7.4304,-7.4356,-7.4431,-7.4464,-7.4547,-7.4591,-7.4654,-7.4685,-7.4649,-7.481,-7.4766,-7.4826,-7.4825,-7.4855,-7.4852,-7.5019,-7.4891,-7.489,-7.489,-7.489,0,-7.3881,-7.3973,-7.4038,-7.4105,-7.4208,-7.4245,-7.4345,-7.4387,-7.4449,-7.4521,-7.4534,-7.4601,-7.4641,-7.4714,-7.4739,-7.4839,-7.486,-7.4877,-7.4882,-7.4873,-7.4871,-7.4897,-7.4888,-7.4895,-7.4894,-7.4893,-7.4892,0,-7.3976,-7.4025,-7.4144,-7.423,-7.4254,-7.4325,-7.4397,-7.4461,-7.4499,-7.4591,-7.4614,-7.4671,-7.4758,-7.4798,-7.4904,-7.4921,-7.5034,-7.5035,-7.501,-7.501,-7.5067,-7.506,-7.5253,-7.5279,-7.5138,-7.5139,-7.5141,0,-7.4054,-7.4125,-7.422,-7.4272,-7.4317,-7.44,-7.4454,-7.4494,-7.4549,-7.4638,-7.4691,-7.4779,-7.4851,-7.4989,-7.5038,-7.5119,-7.5119,-7.5182,-7.5131,-7.512,-7.5115,-7.5109,-7.5114,-7.5189,-7.519,-7.5191,-7.5192,0,-7.4184,-7.4206,-7.4285,-7.4374,-7.444,-7.4511,-7.458,-7.4621,-7.4671,-7.4733,-7.4823,-7.488,-7.4991,-7.5076,-7.5162,-7.5203,-7.5204,-7.5209,-7.5227,-7.5216,-7.5197,-7.5204,-7.503,-7.5203,-7.5202,-7.5201,-7.52,-7.52,-7.427,-7.4334,-7.4411,-7.4499,-7.4557,-7.4622,-7.4687,-7.4734,-7.4812,-7.4907,-7.4926,-7.5021,-7.5092,-7.5207,-7.5252,-7.5325,-7.531,-7.5336,-7.5342,-7.5346,-7.5348,-7.5191,-7.5341,-7.5341,-7.5341,-7.5341,-7.5341,0,-7.4398,-7.4449,-7.4531,-7.4629,-7.4699,-7.4701,-7.4778,-7.4835,-7.492,-7.4988,-7.506,-7.5164,-7.5249,-7.5306,-7.5391,-7.5439,-7.5442,-7.5459,-7.5453,-7.5462,-7.5359,-7.5333,-7.5455,-7.5455,-7.5455,-7.5455,-7.5455,-7.5455,-7.4472,-7.458,-7.461,-7.4746,-7.4796,-7.4893,-7.4936,-7.4996,-7.505,-7.5167,-7.5238,-7.5277,-7.534,-7.5431,-7.5507,-7.5522,-7.555,-7.5568,-7.5581,-7.5482,-7.547,-7.5458,-7.5434,-7.5575,-7.5576,-7.5678,-7.5679,-7.568]},{"header":{"parameterUnit":"m.s-1","parameterCategory":1,"la1":30.2991,"la2":30.254,"lo1":-89.0895,"lo2":-89.0444,"dy":0.0017,"dx":0.0017,"nx":28,"ny":28,"refTime":"2024-08-29T21:00:00:Z","depth":0,"parameterNumber":3,"parameterNumberName":"V-component_of_WINDS"},"data":[0,0,0,0,0,0,0,0,0,0,0,0,0,0,0,0,0,0,0,0,0,0,0,0,0,0,0,0,0,0,0,0,0,0,0,0,0,0,0,0,0,0,0,0,0,0,0,0,0,0,0,0,0,0,0,0,0,0,3.7302,3.7302,0,3.73,3.73,3.73,3.7222,3.722,3.7218,3.7216,3.7214,3.7216,3.7218,0,0,0,0,0,0,0,0,0,0,0,0,0,3.7241,3.7242,3.7302,3.7302,3.7302,3.73,3.73,3.73,3.7222,3.722,3.7217,3.7215,3.7214,3.7216,3.7218,0,0,0,0,0,0,0,0,0,0,0,0,0,3.7256,3.7243,3.7302,3.7263,3.726,3.73,3.73,3.73,3.7223,3.722,3.7217,3.7214,3.7213,3.7216,3.7218,3.7296,0,0,3.7227,3.7228,0,0,0,0,0,0,0,0,3.7255,3.7258,3.7269,3.7266,3.7262,3.7258,3.7278,3.7299,3.7224,3.7237,3.7216,3.7213,3.7231,3.7233,3.7239,3.7296,3.7296,3.7227,3.7229,3.723,3.7231,0,0,0,0,0,0,0,3.7254,3.7258,3.7301,3.7269,3.7265,3.7246,3.7245,3.7281,3.7251,3.7236,3.723,3.7231,3.7229,3.7236,3.7238,3.7296,3.7227,3.7229,3.7231,3.7232,3.742,3.7423,0,0,0,0,0,0,3.7259,3.7258,3.7302,3.7301,3.7251,3.725,3.7249,3.7263,3.7251,3.7246,3.7233,3.7227,3.7233,3.7235,3.7238,3.7329,3.723,3.7233,3.7234,3.7416,3.742,3.7424,0,0,0,0,0,0,3.7257,3.7263,3.7302,3.7278,3.7282,3.7254,3.7271,3.7264,3.7271,3.7249,3.7243,3.7246,3.7231,3.7234,3.7283,3.7328,3.7234,3.7236,3.7412,3.7418,3.7422,3.7513,0,0,0,0,0,0,3.7256,3.7263,3.7292,3.7279,3.7283,3.7346,3.7273,3.7266,3.7276,3.7268,3.726,3.7255,3.7229,3.7279,3.7286,3.733,3.7238,3.7408,3.7415,3.7421,3.7506,3.752,3.7533,0,0,0,0,0,3.7254,3.7317,3.7294,3.73,3.7318,3.7349,3.7351,3.7319,3.728,3.7309,3.7295,3.7255,3.7322,3.7285,3.7291,3.7338,3.7405,3.7413,3.742,3.75,3.7517,3.7532,0,0,0,0,0,0,3.7335,3.7315,3.7289,3.7349,3.7352,3.7336,3.7371,3.7339,3.7352,3.7344,3.7304,3.7303,3.7358,3.7353,3.7311,3.7414,3.7357,3.7366,3.7415,3.7432,3.7445,3.7445,3.7241,0,0,0,0,0,3.7361,3.7387,3.7367,3.7423,3.7426,3.7399,3.7411,3.7386,3.7387,3.7387,3.7377,3.7379,3.7401,3.7416,3.7435,3.7505,3.7503,3.754,3.7554,3.7565,3.7573,3.7612,3.7629,3.7448,3.7448,3.7448,0,0,3.7412,3.7404,3.7423,3.7439,3.7438,3.7467,3.74,3.7433,3.7454,3.7392,3.7438,3.7431,3.7431,3.7492,3.7518,3.7489,3.7623,3.7574,3.7584,3.7586,3.7621,3.7638,3.7654,3.7454,3.7453,3.7452,0,0,3.7522,3.7518,3.7565,3.7565,3.7565,3.7547,3.7558,3.7548,3.7541,3.7586,3.7541,3.7566,3.7604,3.7607,3.7613,3.7727,3.7691,3.7734,3.7805,3.7843,3.7857,3.7869,3.7911,3.7927,3.7742,3.7742,3.7743,0,3.7586,3.7627,3.7593,3.7629,3.7638,3.7585,3.7632,3.7635,3.764,3.7648,3.7616,3.7664,3.766,3.7721,3.7749,3.7755,3.7768,3.7734,3.7858,3.787,3.7881,3.792,3.7936,3.7748,3.7747,3.7747,3.7746,0,3.7708,3.7737,3.7775,3.7783,3.7796,3.7838,3.7811,3.7828,3.7803,3.7789,3.7837,3.7831,3.7849,3.7861,3.7837,3.792,3.7902,3.7865,3.7807,3.7904,3.794,3.7955,3.7755,3.7753,3.7752,3.7751,0,0,3.7867,3.7856,3.7871,3.7874,3.7871,3.7894,3.7934,3.7951,3.7968,3.7974,3.8008,3.8043,3.8008,3.8016,3.7991,3.8025,3.8117,3.7983,3.7982,3.8009,3.821,3.8239,3.8257,3.8093,3.8096,3.8098,3.821,0,3.7973,3.8041,3.8012,3.8084,3.8112,3.8062,3.8097,3.81,3.8089,3.8111,3.8098,3.8124,3.8076,3.808,3.8111,3.8099,3.8157,3.809,3.8125,3.8127,3.8127,3.8276,3.8306,3.8412,3.8224,3.8227,3.8228,0,3.8106,3.8119,3.8194,3.8187,3.8198,3.823,3.8245,3.8267,3.8269,3.8259,3.8269,3.8237,3.8278,3.8221,3.8276,3.8232,3.8245,3.8241,3.8245,3.8247,3.8184,3.8283,3.8445,3.8462,3.825,3.8248,3.8247,0,3.8217,3.8252,3.8302,3.8307,3.83,3.8324,3.8323,3.8322,3.8335,3.8348,3.8357,3.8374,3.8384,3.8399,3.8374,3.8335,3.8435,3.8375,3.8428,3.8429,3.8451,3.845,3.8618,3.8458,3.8458,3.8458,3.8458,0,3.8339,3.8387,3.8352,3.8382,3.8435,3.8402,3.8455,3.8448,3.8449,3.8478,3.8436,3.8464,3.8429,3.8455,3.8435,3.8486,3.849,3.8484,3.8478,3.8488,3.8489,3.8496,3.8489,3.8462,3.8461,3.846,3.846,0,3.8471,3.8449,3.85,3.8491,3.8489,3.8529,3.8521,3.8549,3.8536,3.8573,3.858,3.8559,3.8587,3.8564,3.8591,3.8578,3.8645,3.8628,3.8645,3.864,3.8695,3.8691,3.8875,3.8898,3.8722,3.8724,3.8725,0,3.8551,3.8587,3.8581,3.8598,3.86,3.8627,3.864,3.861,3.8625,3.8632,3.8661,3.8685,3.8703,3.8751,3.8738,3.8759,3.8743,3.8806,3.8746,3.8756,3.8746,3.8745,3.8749,3.8819,3.8821,3.8822,3.8824,0,3.8695,3.8684,3.8704,3.8723,3.8741,3.8753,3.8763,3.8779,3.8748,3.8768,3.8796,3.8811,3.8839,3.8865,3.8882,3.8881,3.8848,3.8843,3.8857,3.8867,3.8876,3.8874,3.8679,3.8839,3.8837,3.8836,3.8835,3.8835,3.8804,3.8835,3.8837,3.8862,3.8866,3.8877,3.8904,3.8894,3.8917,3.8938,3.8919,3.8954,3.8957,3.8977,3.8981,3.9008,3.8982,3.9002,3.9007,3.9012,3.9021,3.8871,3.9011,3.9011,3.901,3.901,3.9009,0,3.8948,3.8948,3.8971,3.8987,3.9008,3.8975,3.8984,3.9004,3.9035,3.9041,3.906,3.9094,3.912,3.911,3.9132,3.9157,3.9142,3.9164,3.9162,3.9163,3.9042,3.9029,3.9175,3.9175,3.9175,3.9175,3.9175,3.9175,3.9026,3.9076,3.9065,3.9118,3.9116,3.9151,3.9159,3.9169,3.9174,3.9214,3.9235,3.9228,3.9229,3.9251,3.9274,3.927,3.9281,3.9308,3.93,3.9187,3.9171,3.9155,3.9143,3.9311,3.9311,3.9418,3.9419,3.942]}]]